SCP
0 0 0 0 0 0 0 0 0 0 0 -0 -0 0 0 0 0 -0 -0 0 -0 -0 -0 -0 -0 0 0 -0 -0 -0 -0 0 0 -0 -0 -0 -0 -0 -0 -0 -0 -0 -0 -0 -0 -0 -0 -0 -0
0 0 0 0 0 0 -0 0 0 0 0 0 0 0 0 -0 0 0 -0 0 -0 -0 0 -0 -0 -0 -0 -0 -0 -0 -0 -0 -0 -0 -0 -0 -0 -0 -0 -0 -0 -0 -0 -0 -0 -0 -0 -0 -0
0 0 0 0 0 0 -0 -0 0 0 0 0 0 0 -0 0 0 -0 -0 -0 -0 -0 0 0 -0 -0 -0 -0 -0 -0 -0 -0 -0 -0 -0 -0 -0 -0 -0 -0 -0 -0 -0 -0 -0 -0 -0 -0 -0
0 0 0 0 -0 -0 -0 -0 -0 -0 0 0 0 0 0 0 -0 -0 -0 -0 -0 -0 -0 -0 -0 -0 -0 -0 -0 -0 -0 -0 -0 -0 -0 -0 -0 -0 -0 -0 -0 -0 -0 -0 -0 -0 -0 -0 -0
0 0 0 -0 0 -0 -0 -0 -0 -0 -0 -0 -0 0 0 -0 -0 -0 -0 -0 -0 -0 -0 -0 -0 -0 -0 -0 -0 -0 -0 -0 -0 -0 -0 -0 -0 -0 -0 -0 -0 -0 -0 -0 -0 -0 -0 -0 -0
-0 0 0 0 -0 -0 -0 -0 -0 -0 0 -0 -0 -0 -0 -0 -0 -0 -0 -0 -0 -0 -0 -0 -0 -0 -0 -0 -0 -0 -0 -0 -0 -0 -0 -0 -0 -0 -0 -0 -0 -0 -0 -0 -0 -0 -0 -0 -0
-0 -0 -0 0 0 -0 -0 -0 -0 -0 0 -0 0 0 -0 -0 -0 -0 -0 -0 -0 -0 -0 -0 -0 -0 -0 -0 -0 -0 -0 -0 -0 -0 -0 -0 -0 -0 -0 -0 -0 -0 -0 -0 -0 -0 -0 -0 -0
0 0 0 0 0 0 0 -0 -0 0 0 -0 0 0 0 -0 -0 -0 -0 -0 -0 -0 -0 -0 -0 -0 -0 -0 -0 -0 -0 -0 -0 -0 -0 -0 -0 -0 -0 -0 -0 -0 -0 -0 -0 -0 -0 -0 -0
0 0 0 0 0 0 -0 -0 -0 -0 0 0 0 -0 -0 -0 -0 -0 -0 -0 -0 -0 -0 -0 -0 -0 -0 -0 -0 -0 -0 -0 -0 -0 -0 -0 -0 -0 -0 -0 -0 -0 -0 -0 -0 -0 -0 -0 -0
0 0 0 0 0 0 -0 -0 -0 0 -0 -0 0 -0 -0 -0 -0 -0 -0 -0 -0 -0 -0 -0 -0 -0 -0 0 -0 -0 -0 0 -0 0 -0 0 0 0 -0 0 -0 -0 -0 -0 -0 -0 0 0 0
0 0 0 0 0 0 0 -0 0 -0 -0 -0 -0 -0 -0 -0 -0 -0 -0 -0 -0 -0 -0 -0 -0 -0 -0 0 0 0 0 0 0 0 0 0 0 0 0 0 0 0 0 0 0 0 0 0 0
0 0 0 0 0 0 0 0 0 -0 -0 -0 0 0 -0 -0 -0 -0 -0 -0 -0 -0 -0 -0 -0 0 0 0 0 0 0 0 0 0 0 0 0 0 0 0 0 0 0 0 0 0 0 0 0
0 0 0 0 0 0 0 0 0 -0 -0 0 0 0 -0 -0 -0 -0 -0 -0 -0 -0 -0 -0 -0 0 0 0 0 0 0 0 0 0 0 0 0 0 0 0 0 0 0 0 0 0 0 0 0
0 0 0 0 0 0 0 0 0 0 -0 -0 -0 -0 -0 -0 -0 -0 -0 -0 -0 -0 -0 -0 -0 0 0 0 0 0 0 0 0 0 0 0 0 0 0 0 0 0 0 0 0 0 0 0 0
0 0 0 0 0 0 0 0 0 0 0 0 -0 -0 -0 -0 -0 -0 -0 -0 -0 -0 -0 -0 -0 0 0 0 0 0 0 0 0 0 0 0 0 0 0 0 0 0 0 0 0 0 0 0 0
0 0 0 0 0 0 0 0 0 0 0 0 -0 -0 -0 -0 -0 -0 -0 -0 -0 -0 -0 0 0 0 0 0 0 0 0 0 0 0 0 0 0 0 0 0 0 0 0 0 0 0 0 0 0
0 0 0 0 0 0 0 0 0 0 0 0 0 -0 -0 -0 -0 0 0 -0 -0 -0 -0 0 0 0 0 0 0 0 0 0 0 0 0 0 0 0 0 0 0 0 0 0 0 0 0 0 0
0 0 0 0 0 0 0 0 0 0 0 0 0 0 0 0 0 0 0 0 0 0 0 0 0 0 0 0 0 0 0 0 0 0 0 0 0 0 0 0 0 0 0 0 0 0 0 0 0
0 0 0 0 0 0 0 0 0 0 0 0 0 0 -0 -0 0 0 0 0 0 0 0 0 0 0 0 0 0 0 0 0 0 0 0 0 0 0 0 0 0 0 0 0 0 0 0 0 0
0 0 0 0 0 0 0 0 0 0 0 -0 0 0 0 0 0 0 0 0 0 0 0 0 0 0 0 0 0 0 0 0 0 0 0 0 0 0 0 0 0 0 0 0 0 0 0 0 0
0 0 0 0 0 -0 0 -0 -0 0 0 0 -0 0 0 0 0 0 0 0 0 0 0 0 0 0 0 0 0 0 0 0 0 0 0 0 0 0 0 0 0 0 0 0 0 0 0 0 0
0 0 0 0 0 0 0 -0 0 0 0 0 0 0 0 0 0 0 0 0 0 0 0 0 0 0 0 0 0 0 0 0 0 0 0 0 0 0 0 0 0 0 0 0 0 0 0 0 0
0 0 0 0 0 0 0 0 -0 -0 0 0 0 0 0 0 0 0 0 0 0 0 0 0 0 0 0 0 0 0 0 0 0 0 0 0 0 0 0 0 0 0 0 0 0 0 0 0 0
0 0 0 0 0 0 0 0 -0 0 0 0 0 0 0 0 0 0 0 0 0 0 0 0 0 0 0 0 0 0 0 0 0 0 0 0 0 0 0 0 0 0 0 0 0 0 0 0 0
0 0 0 0 0 0 0 0 0 0 0 0 0 0 0 0 0 0 0 0 0 0 0 0 0 0 0 0 0 0 0 0 0 0 0 0 0 0 0 0 0 0 0 0 0 0 0 0 0
0 0 0 0 0 0 0 0 0 0 0 0 0 0 0 0 0 0 0 0 0 0 0 0 0 0 0 0 0 0 0 0 0 0 0 0 0 0 0 0 0 0 0 0 0 0 0 0 0
0 0 0 0 0 0 0 0 0 0 0 0 0 0 0 0 0 0 0 0 0 0 0 0 0 0 0 0 0 0 0 0 0 0 0 0 0 0 0 0 0 0 0 0 0 0 0 0 0
0 0 0 0 0 0 0 0 0 0 0 0 0 0 0 0 0 0 0 0 0 0 0 0 0 0 0 0 0 0 0 0 0 0 0 0 0 0 0 0 0 0 0 0 0 0 0 0 0
0 0 0 0 0 0 0 0 0 0 0 0 0 0 0 0 0 0 0 0 0 0 0 0 0 0 0 0 0 0 0 0 0 0 0 0 0 0 0 0 0 0 0 0 0 0 0 0 0
0 0 0 0 0 0 0 0 0 0 0 0 0 0 0 0 0 0 0 0 0 0 0 0 0 0 0 0 0 0 0 0 0 0 0 0 0 0 0 0 0 0 0 0 0 0 0 0 0
Wind_Speed_500mb
7 6 5 7 11 7 1 8 3 13 10 8 5 3 14 14 13 8 30 26 34 37 30 29 24 25 22 20 17 18 19 23 25 27 29 29 28 27 25 26 28 35 27 23 23 26 26 28 31
6 2 5 10 10 8 12 12 11 13 14 12 9 4 4 10 9 20 34 29 32 32 29 30 26 26 23 21 18 17 19 21 24 26 26 26 25 26 26 25 24 29 27 25 23 26 26 28 33
4 2 16 6 6 8 10 5 13 13 12 11 8 4 5 9 9 33 20 37 34 31 30 30 29 27 25 22 18 15 16 18 20 21 22 22 21 22 22 23 22 22 21 21 24 25 28 31 33
1 6 9 14 10 8 9 3 16 19 9 8 4 7 5 7 26 19 33 37 34 32 29 31 30 28 24 21 18 14 14 16 18 20 20 21 20 19 18 21 21 19 21 24 25 25 28 30 32
5 7 10 7 10 3 2 0 15 16 13 15 11 7 4 16 20 25 33 36 33 31 30 34 33 30 27 23 20 17 14 16 18 17 18 20 21 20 19 19 20 20 20 22 24 25 27 28 31
15 9 11 11 1 2 3 10 16 17 9 10 11 6 8 19 26 28 33 34 31 32 31 35 34 30 27 24 22 18 14 16 16 16 16 18 19 19 19 18 18 18 19 21 22 23 24 27 30
25 12 18 9 8 7 3 13 19 18 13 14 2 8 9 27 26 31 34 34 32 32 33 34 36 33 29 26 23 21 17 16 16 14 14 15 17 16 19 20 20 20 19 19 21 21 23 25 28
12 9 15 13 13 7 10 17 9 17 12 9 9 5 8 30 33 32 35 37 35 36 33 33 33 36 34 31 27 25 21 18 16 14 12 12 15 15 19 20 21 22 22 22 22 21 21 24 28
5 12 16 16 10 3 14 18 7 9 12 11 12 4 10 32 35 37 40 39 40 40 37 36 38 34 32 31 32 28 24 22 20 20 16 14 15 16 16 16 17 18 20 21 22 23 23 23 24
14 16 15 7 6 5 14 20 15 13 24 24 20 17 15 32 38 41 44 46 46 46 42 43 40 36 33 33 32 30 27 27 26 25 20 18 18 19 17 16 13 12 12 16 18 19 21 22 24
8 17 5 4 4 3 11 17 13 20 26 27 27 29 28 30 38 42 44 45 47 44 43 43 44 40 38 38 34 32 31 31 32 32 27 29 24 20 19 17 16 13 8 9 13 15 16 20 20
13 5 4 3 4 5 9 5 14 33 37 10 22 16 34 37 42 47 48 46 45 46 46 46 43 41 45 38 42 38 37 34 33 35 33 33 24 25 20 20 20 18 12 8 7 10 14 17 20
14 6 7 5 6 7 6 15 17 31 37 29 22 25 34 37 41 42 44 44 45 48 48 47 50 49 46 54 45 46 47 42 38 36 39 36 32 32 28 29 25 22 20 18 10 10 14 17 21
2 9 8 9 10 8 10 15 5 16 27 39 34 33 32 37 41 41 45 49 52 52 53 50 56 58 53 51 48 54 47 46 47 47 48 44 40 36 34 34 31 30 31 25 17 10 16 19 22
4 9 13 20 14 8 8 19 33 35 26 24 41 38 39 40 39 48 50 54 54 56 53 58 61 64 66 64 62 56 51 57 51 53 55 49 47 45 39 36 40 33 43 33 22 14 18 22 27
8 7 16 14 15 8 10 25 10 10 28 36 39 38 40 45 47 47 48 53 55 56 62 63 68 67 69 68 67 65 62 60 59 58 58 54 51 50 48 45 43 43 42 41 32 22 19 27 30
11 15 18 11 12 4 22 18 3 2 15 32 35 40 45 47 46 49 54 57 57 60 63 70 71 71 71 70 70 69 69 68 68 69 70 66 60 57 56 57 51 48 48 51 39 32 25 32 38
18 16 14 18 10 13 21 33 34 35 28 32 35 38 39 45 53 53 56 60 61 65 69 70 74 73 73 73 73 73 74 76 69 75 77 71 69 66 65 64 58 56 57 60 49 41 32 37 42
7 11 16 7 7 8 23 38 35 44 48 48 53 55 57 60 52 47 53 63 67 69 74 77 78 78 78 79 79 78 81 75 77 84 75 76 78 69 73 69 65 65 58 70 59 49 41 44 50
17 24 27 26 4 8 28 42 37 41 55 54 56 60 58 58 54 53 52 60 68 73 76 79 83 81 80 81 78 75 77 77 76 81 77 73 82 78 76 78 70 72 68 78 68 62 53 51 58
27 29 24 26 5 25 26 37 35 34 41 38 57 65 61 66 60 51 56 65 69 71 75 80 83 85 82 80 77 73 76 80 78 79 79 80 84 83 81 79 77 74 77 76 78 62 60 59 63
31 23 27 22 14 15 1 20 34 33 35 32 46 49 58 54 47 46 52 60 71 76 76 80 81 83 84 83 82 84 86 82 79 78 78 82 83 83 82 82 77 72 75 78 65 66 63 63 70
7 8 6 8 14 19 27 17 18 26 29 30 41 51 45 41 37 36 39 50 62 61 68 72 76 81 84 85 84 87 87 82 79 78 78 82 84 82 83 77 81 83 96 82 92 80 72 69 72
21 12 8 3 6 17 25 26 31 29 29 17 16 18 14 15 16 23 29 38 44 47 52 60 70 75 80 84 86 91 87 83 81 81 83 82 85 84 86 84 85 91 99 98 83 72 74 72 77
20 15 7 10 12 20 10 10 39 27 27 19 24 30 38 19 16 17 21 24 27 31 38 49 58 68 74 80 83 87 86 80 82 82 82 82 88 89 85 85 78 77 79 75 72 72 74 79 80
29 28 14 17 15 24 8 20 17 5 17 26 28 42 46 36 34 36 31 28 27 30 32 36 43 53 63 70 77 82 82 82 81 80 80 76 84 83 82 84 82 82 78 81 74 75 79 81 82
17 23 28 21 2 10 20 42 43 30 20 33 51 52 52 43 37 41 32 38 40 35 32 30 33 38 46 55 63 71 77 81 86 84 81 79 76 77 84 85 84 83 85 80 77 80 83 80 82
15 5 14 15 13 21 32 40 30 21 26 23 23 24 37 24 24 31 28 30 34 29 24 24 26 29 34 42 50 58 66 74 80 80 82 81 77 76 82 77 81 86 86 82 83 84 83 79 80
17 19 15 10 17 14 23 25 26 30 12 10 8 12 22 21 20 12 23 35 30 24 21 22 25 25 28 34 39 47 59 67 75 80 84 78 78 76 75 73 81 84 83 84 86 85 80 80 80
34 42 41 18 21 15 21 34 29 9 8 12 18 29 16 16 19 16 14 21 22 24 23 23 22 25 31 34 37 43 51 60 69 79 82 78 79 78 79 76 80 82 84 86 87 85 82 82 82
Wind_Direction_500mb
259 308 335 275 245 240 347 138 46 142 150 95 105 291 9 20 2 30 144 147 164 164 164 161 155 152 148 139 117 102 97 92 89 85 85 90 93 95 98 101 102 107 114 118 106 94 87 81 85
242 296 282 276 265 270 97 119 177 157 82 143 155 205 226 76 69 129 147 152 161 168 172 170 164 159 155 152 140 112 97 96 94 91 88 89 91 93 99 100 105 110 111 104 98 93 87 87 89
214 170 264 282 291 309 27 160 161 115 137 167 167 229 352 105 128 144 161 152 157 163 172 179 168 164 165 160 150 122 109 110 104 95 88 81 83 89 96 101 105 109 111 96 93 90 90 92 94
200 225 236 259 317 46 341 215 131 149 158 180 220 184 122 128 150 168 157 157 159 163 168 177 171 171 168 166 163 144 125 124 118 104 87 77 76 81 89 96 98 98 90 96 97 96 96 97 96
209 243 251 262 311 350 114 121 172 179 154 175 189 142 136 163 170 158 161 163 164 167 176 177 175 175 177 178 174 165 143 138 134 118 96 82 81 87 92 94 98 98 97 98 97 98 100 101 100
217 268 241 236 68 60 167 176 198 192 176 146 194 182 141 173 162 163 167 171 173 175 182 182 181 181 186 184 184 178 162 155 148 130 110 98 92 87 89 95 100 99 97 98 99 101 102 101 100
252 222 254 298 305 279 207 169 207 204 196 201 265 220 132 175 171 171 173 175 181 185 183 187 188 186 190 191 188 187 180 168 163 152 133 115 103 94 87 92 95 97 102 101 101 101 101 103 105
255 251 250 246 273 291 142 168 227 222 213 177 195 214 182 186 177 170 172 180 186 197 185 187 192 194 193 195 195 195 191 186 181 180 160 137 118 106 96 97 94 97 100 103 103 103 105 110 112
224 236 240 253 250 271 149 191 195 239 238 211 210 244 177 172 178 173 178 187 190 199 193 193 199 199 199 203 200 200 198 197 199 198 188 176 154 136 127 111 105 100 100 102 105 105 106 110 116
233 231 249 35 312 265 177 206 191 225 223 232 225 212 188 177 182 185 189 193 195 198 198 197 196 194 193 197 210 208 206 204 207 209 200 176 162 164 162 142 126 116 106 106 111 113 117 120 123
197 246 73 169 248 233 186 205 211 232 250 240 230 211 206 192 190 197 202 203 202 201 199 201 200 197 201 198 210 208 212 216 212 213 205 197 201 209 195 178 168 157 142 135 135 141 141 140 137
233 240 246 132 199 217 200 205 217 230 238 275 239 226 204 200 201 203 206 207 206 205 205 202 201 201 203 207 207 212 219 215 213 214 212 208 218 237 234 216 197 191 182 196 198 179 168 158 150
235 181 186 176 184 223 276 236 243 251 247 252 233 222 207 209 212 212 212 211 211 209 208 210 204 211 209 215 213 216 219 224 225 228 221 222 232 233 230 230 227 222 212 195 234 249 202 178 168
127 202 190 205 212 229 246 250 251 244 251 238 237 235 222 221 219 216 213 213 212 212 212 210 215 217 215 218 216 220 225 226 224 231 233 236 234 230 235 235 226 231 220 213 208 270 228 209 188
175 225 214 215 210 230 241 246 241 244 251 243 237 238 235 232 224 221 223 218 216 217 215 215 222 223 223 227 227 223 224 226 231 229 235 230 236 232 233 242 226 233 235 216 209 234 244 218 198
220 245 235 128 183 194 214 263 242 224 222 245 244 243 239 237 235 231 225 226 219 218 220 222 228 227 227 230 229 232 230 227 224 231 230 233 234 238 235 236 235 232 238 219 218 210 251 222 206
202 259 216 204 201 201 214 279 231 230 241 254 252 249 246 244 239 234 233 231 229 224 226 226 231 230 231 231 232 233 235 235 233 231 232 230 233 237 234 233 238 240 228 223 215 210 244 233 208
232 228 229 255 141 226 243 256 270 267 251 260 261 257 253 249 243 238 236 238 232 229 229 230 233 234 233 233 233 234 235 235 231 236 235 229 230 234 235 235 240 242 239 221 218 215 227 235 218
284 290 266 259 123 285 263 271 269 273 270 266 261 260 258 254 250 243 233 240 236 234 233 232 233 235 232 232 232 233 237 239 235 236 238 230 228 230 233 238 240 240 242 219 219 219 227 229 212
245 255 259 272 108 249 281 279 277 271 264 259 261 261 259 259 252 242 232 232 240 238 237 235 236 236 234 234 235 235 240 243 240 240 241 234 226 226 234 235 238 237 234 223 218 214 215 224 219
233 245 254 262 317 241 284 275 268 251 250 263 259 260 261 256 253 245 234 239 240 238 239 240 239 238 236 235 235 235 238 242 242 240 237 233 228 228 231 233 234 240 243 229 225 220 231 232 214
255 245 253 269 281 272 291 286 287 287 273 254 261 257 257 258 255 249 239 241 249 247 243 242 239 239 239 237 235 238 243 245 248 246 241 235 230 229 231 229 231 235 226 230 239 232 237 239 223
244 36 252 269 265 298 239 269 266 252 262 261 262 266 268 268 260 251 244 235 246 250 245 243 240 238 237 237 237 239 242 244 246 245 243 236 231 231 229 227 228 232 231 232 239 230 228 236 226
132 117 116 188 277 264 250 225 269 251 267 266 264 272 254 275 261 248 242 240 243 244 242 240 240 240 238 238 238 239 242 241 242 242 242 236 230 231 227 225 231 235 233 236 234 230 233 234 225
197 184 231 242 201 253 67 280 247 296 288 268 277 287 290 276 266 254 256 250 246 244 243 241 239 238 238 238 239 240 240 240 243 245 244 239 231 232 223 225 224 225 227 229 238 236 230 230 226
197 202 208 233 239 265 106 238 264 256 297 294 270 274 284 278 274 270 258 247 240 244 245 244 242 240 240 240 242 242 240 240 240 242 246 243 237 234 228 226 229 232 235 231 233 233 235 230 225
181 221 243 270 319 282 251 265 272 255 229 265 276 282 282 284 274 272 261 246 246 243 241 243 247 247 246 246 246 247 243 241 242 243 244 246 238 235 228 229 231 228 230 232 235 235 235 230 226
235 224 199 215 224 235 256 255 259 284 281 271 277 282 296 304 296 261 247 235 240 237 235 239 246 252 255 256 255 254 250 246 242 244 241 241 237 234 231 230 229 231 230 232 232 232 233 230 224
190 221 223 245 228 245 252 258 272 276 336 353 355 317 314 308 312 280 236 243 234 227 228 240 247 255 262 266 265 258 252 249 244 241 241 241 238 238 231 232 232 232 232 232 231 231 231 226 221
240 226 218 221 222 241 269 268 253 279 304 309 287 305 301 302 321 308 254 231 225 223 221 244 255 267 272 265 263 265 258 253 247 243 241 240 238 236 231 233 234 234 234 231 230 230 226 222 220
Wind_Speed_850mb
7 6 5 7 11 7 1 8 3 13 10 8 5 3 14 14 13 8 30 26 34 37 30 29 24 25 22 20 17 18 19 23 25 27 29 29 28 27 25 26 28 35 27 23 23 26 26 28 31
6 2 5 10 10 8 12 12 11 13 14 12 9 4 4 10 9 20 34 29 32 32 29 30 26 26 23 21 18 17 19 21 24 26 26 26 25 26 26 25 24 29 27 25 23 26 26 28 33
4 2 16 6 6 8 10 5 13 13 12 11 8 4 5 9 9 33 20 37 34 31 30 30 29 27 25 22 18 15 16 18 20 21 22 22 21 22 22 23 22 22 21 21 24 25 28 31 33
1 6 9 14 10 8 9 3 16 19 9 8 4 7 5 7 26 19 33 37 34 32 29 31 30 28 24 21 18 14 14 16 18 20 20 21 20 19 18 21 21 19 21 24 25 25 28 30 32
5 7 10 7 10 3 2 0 15 16 13 15 11 7 4 16 20 25 33 36 33 31 30 34 33 30 27 23 20 17 14 16 18 17 18 20 21 20 19 19 20 20 20 22 24 25 27 28 31
15 9 11 11 1 2 3 10 16 17 9 10 11 6 8 19 26 28 33 34 31 32 31 35 34 30 27 24 22 18 14 16 16 16 16 18 19 19 19 18 18 18 19 21 22 23 24 27 30
25 12 18 9 8 7 3 13 19 18 13 14 2 8 9 27 26 31 34 34 32 32 33 34 36 33 29 26 23 21 17 16 16 14 14 15 17 16 19 20 20 20 19 19 21 21 23 25 28
12 9 15 13 13 7 10 17 9 17 12 9 9 5 8 30 33 32 35 37 35 36 33 33 33 36 34 31 27 25 21 18 16 14 12 12 15 15 19 20 21 22 22 22 22 21 21 24 28
5 12 16 16 10 3 14 18 7 9 12 11 12 4 10 32 35 37 40 39 40 40 37 36 38 34 32 31 32 28 24 22 20 20 16 14 15 16 16 16 17 18 20 21 22 23 23 23 24
14 16 15 7 6 5 14 20 15 13 24 24 20 17 15 32 38 41 44 46 46 46 42 43 40 36 33 33 32 30 27 27 26 25 20 18 18 19 17 16 13 12 12 16 18 19 21 22 24
8 17 5 4 4 3 11 17 13 20 26 27 27 29 28 30 38 42 44 45 47 44 43 43 44 40 38 38 34 32 31 31 32 32 27 29 24 20 19 17 16 13 8 9 13 15 16 20 20
13 5 4 3 4 5 9 5 14 33 37 10 22 16 34 37 42 47 48 46 45 46 46 46 43 41 45 38 42 38 37 34 33 35 33 33 24 25 20 20 20 18 12 8 7 10 14 17 20
14 6 7 5 6 7 6 15 17 31 37 29 22 25 34 37 41 42 44 44 45 48 48 47 50 49 46 54 45 46 47 42 38 36 39 36 32 32 28 29 25 22 20 18 10 10 14 17 21
2 9 8 9 10 8 10 15 5 16 27 39 34 33 32 37 41 41 45 49 52 52 53 50 56 58 53 51 48 54 47 46 47 47 48 44 40 36 34 34 31 30 31 25 17 10 16 19 22
4 9 13 20 14 8 8 19 33 35 26 24 41 38 39 40 39 48 50 54 54 56 53 58 61 64 66 64 62 56 51 57 51 53 55 49 47 45 39 36 40 33 43 33 22 14 18 22 27
8 7 16 14 15 8 10 25 10 10 28 36 39 38 40 45 47 47 48 53 55 56 62 63 68 67 69 68 67 65 62 60 59 58 58 54 51 50 48 45 43 43 42 41 32 22 19 27 30
11 15 18 11 12 4 22 18 3 2 15 32 35 40 45 47 46 49 54 57 57 60 63 70 71 71 71 70 70 69 69 68 68 69 70 66 60 57 56 57 51 48 48 51 39 32 25 32 38
18 16 14 18 10 13 21 33 34 35 28 32 35 38 39 45 53 53 56 60 61 65 69 70 74 73 73 73 73 73 74 76 69 75 77 71 69 66 65 64 58 56 57 60 49 41 32 37 42
7 11 16 7 7 8 23 38 35 44 48 48 53 55 57 60 52 47 53 63 67 69 74 77 78 78 78 79 79 78 81 75 77 84 75 76 78 69 73 69 65 65 58 70 59 49 41 44 50
17 24 27 26 4 8 28 42 37 41 55 54 56 60 58 58 54 53 52 60 68 73 76 79 83 81 80 81 78 75 77 77 76 81 77 73 82 78 76 78 70 72 68 78 68 62 53 51 58
27 29 24 26 5 25 26 37 35 34 41 38 57 65 61 66 60 51 56 65 69 71 75 80 83 85 82 80 77 73 76 80 78 79 79 80 84 83 81 79 77 74 77 76 78 62 60 59 63
31 23 27 22 14 15 1 20 34 33 35 32 46 49 58 54 47 46 52 60 71 76 76 80 81 83 84 83 82 84 86 82 79 78 78 82 83 83 82 82 77 72 75 78 65 66 63 63 70
7 8 6 8 14 19 27 17 18 26 29 30 41 51 45 41 37 36 39 50 62 61 68 72 76 81 84 85 84 87 87 82 79 78 78 82 84 82 83 77 81 83 96 82 92 80 72 69 72
21 12 8 3 6 17 25 26 31 29 29 17 16 18 14 15 16 23 29 38 44 47 52 60 70 75 80 84 86 91 87 83 81 81 83 82 85 84 86 84 85 91 99 98 83 72 74 72 77
20 15 7 10 12 20 10 10 39 27 27 19 24 30 38 19 16 17 21 24 27 31 38 49 58 68 74 80 83 87 86 80 82 82 82 82 88 89 85 85 78 77 79 75 72 72 74 79 80
29 28 14 17 15 24 8 20 17 5 17 26 28 42 46 36 34 36 31 28 27 30 32 36 43 53 63 70 77 82 82 82 81 80 80 76 84 83 82 84 82 82 78 81 74 75 79 81 82
17 23 28 21 2 10 20 42 43 30 20 33 51 52 52 43 37 41 32 38 40 35 32 30 33 38 46 55 63 71 77 81 86 84 81 79 76 77 84 85 84 83 85 80 77 80 83 80 82
15 5 14 15 13 21 32 40 30 21 26 23 23 24 37 24 24 31 28 30 34 29 24 24 26 29 34 42 50 58 66 74 80 80 82 81 77 76 82 77 81 86 86 82 83 84 83 79 80
17 19 15 10 17 14 23 25 26 30 12 10 8 12 22 21 20 12 23 35 30 24 21 22 25 25 28 34 39 47 59 67 75 80 84 78 78 76 75 73 81 84 83 84 86 85 80 80 80
34 42 41 18 21 15 21 34 29 9 8 12 18 29 16 16 19 16 14 21 22 24 23 23 22 25 31 34 37 43 51 60 69 79 82 78 79 78 79 76 80 82 84 86 87 85 82 82 82
Wind_Direction_850mb
259 308 335 275 245 240 347 138 46 142 150 95 105 291 9 20 2 30 144 147 164 164 164 161 155 152 148 139 117 102 97 92 89 85 85 90 93 95 98 101 102 107 114 118 106 94 87 81 85
242 296 282 276 265 270 97 119 177 157 82 143 155 205 226 76 69 129 147 152 161 168 172 170 164 159 155 152 140 112 97 96 94 91 88 89 91 93 99 100 105 110 111 104 98 93 87 87 89
214 170 264 282 291 309 27 160 161 115 137 167 167 229 352 105 128 144 161 152 157 163 172 179 168 164 165 160 150 122 109 110 104 95 88 81 83 89 96 101 105 109 111 96 93 90 90 92 94
200 225 236 259 317 46 341 215 131 149 158 180 220 184 122 128 150 168 157 157 159 163 168 177 171 171 168 166 163 144 125 124 118 104 87 77 76 81 89 96 98 98 90 96 97 96 96 97 96
209 243 251 262 311 350 114 121 172 179 154 175 189 142 136 163 170 158 161 163 164 167 176 177 175 175 177 178 174 165 143 138 134 118 96 82 81 87 92 94 98 98 97 98 97 98 100 101 100
217 268 241 236 68 60 167 176 198 192 176 146 194 182 141 173 162 163 167 171 173 175 182 182 181 181 186 184 184 178 162 155 148 130 110 98 92 87 89 95 100 99 97 98 99 101 102 101 100
252 222 254 298 305 279 207 169 207 204 196 201 265 220 132 175 171 171 173 175 181 185 183 187 188 186 190 191 188 187 180 168 163 152 133 115 103 94 87 92 95 97 102 101 101 101 101 103 105
255 251 250 246 273 291 142 168 227 222 213 177 195 214 182 186 177 170 172 180 186 197 185 187 192 194 193 195 195 195 191 186 181 180 160 137 118 106 96 97 94 97 100 103 103 103 105 110 112
224 236 240 253 250 271 149 191 195 239 238 211 210 244 177 172 178 173 178 187 190 199 193 193 199 199 199 203 200 200 198 197 199 198 188 176 154 136 127 111 105 100 100 102 105 105 106 110 116
233 231 249 35 312 265 177 206 191 225 223 232 225 212 188 177 182 185 189 193 195 198 198 197 196 194 193 197 210 208 206 204 207 209 200 176 162 164 162 142 126 116 106 106 111 113 117 120 123
197 246 73 169 248 233 186 205 211 232 250 240 230 211 206 192 190 197 202 203 202 201 199 201 200 197 201 198 210 208 212 216 212 213 205 197 201 209 195 178 168 157 142 135 135 141 141 140 137
233 240 246 132 199 217 200 205 217 230 238 275 239 226 204 200 201 203 206 207 206 205 205 202 201 201 203 207 207 212 219 215 213 214 212 208 218 237 234 216 197 191 182 196 198 179 168 158 150
235 181 186 176 184 223 276 236 243 251 247 252 233 222 207 209 212 212 212 211 211 209 208 210 204 211 209 215 213 216 219 224 225 228 221 222 232 233 230 230 227 222 212 195 234 249 202 178 168
127 202 190 205 212 229 246 250 251 244 251 238 237 235 222 221 219 216 213 213 212 212 212 210 215 217 215 218 216 220 225 226 224 231 233 236 234 230 235 235 226 231 220 213 208 270 228 209 188
175 225 214 215 210 230 241 246 241 244 251 243 237 238 235 232 224 221 223 218 216 217 215 215 222 223 223 227 227 223 224 226 231 229 235 230 236 232 233 242 226 233 235 216 209 234 244 218 198
220 245 235 128 183 194 214 263 242 224 222 245 244 243 239 237 235 231 225 226 219 218 220 222 228 227 227 230 229 232 230 227 224 231 230 233 234 238 235 236 235 232 238 219 218 210 251 222 206
202 259 216 204 201 201 214 279 231 230 241 254 252 249 246 244 239 234 233 231 229 224 226 226 231 230 231 231 232 233 235 235 233 231 232 230 233 237 234 233 238 240 228 223 215 210 244 233 208
232 228 229 255 141 226 243 256 270 267 251 260 261 257 253 249 243 238 236 238 232 229 229 230 233 234 233 233 233 234 235 235 231 236 235 229 230 234 235 235 240 242 239 221 218 215 227 235 218
284 290 266 259 123 285 263 271 269 273 270 266 261 260 258 254 250 243 233 240 236 234 233 232 233 235 232 232 232 233 237 239 235 236 238 230 228 230 233 238 240 240 242 219 219 219 227 229 212
245 255 259 272 108 249 281 279 277 271 264 259 261 261 259 259 252 242 232 232 240 238 237 235 236 236 234 234 235 235 240 243 240 240 241 234 226 226 234 235 238 237 234 223 218 214 215 224 219
233 245 254 262 317 241 284 275 268 251 250 263 259 260 261 256 253 245 234 239 240 238 239 240 239 238 236 235 235 235 238 242 242 240 237 233 228 228 231 233 234 240 243 229 225 220 231 232 214
255 245 253 269 281 272 291 286 287 287 273 254 261 257 257 258 255 249 239 241 249 247 243 242 239 239 239 237 235 238 243 245 248 246 241 235 230 229 231 229 231 235 226 230 239 232 237 239 223
244 36 252 269 265 298 239 269 266 252 262 261 262 266 268 268 260 251 244 235 246 250 245 243 240 238 237 237 237 239 242 244 246 245 243 236 231 231 229 227 228 232 231 232 239 230 228 236 226
132 117 116 188 277 264 250 225 269 251 267 266 264 272 254 275 261 248 242 240 243 244 242 240 240 240 238 238 238 239 242 241 242 242 242 236 230 231 227 225 231 235 233 236 234 230 233 234 225
197 184 231 242 201 253 67 280 247 296 288 268 277 287 290 276 266 254 256 250 246 244 243 241 239 238 238 238 239 240 240 240 243 245 244 239 231 232 223 225 224 225 227 229 238 236 230 230 226
197 202 208 233 239 265 106 238 264 256 297 294 270 274 284 278 274 270 258 247 240 244 245 244 242 240 240 240 242 242 240 240 240 242 246 243 237 234 228 226 229 232 235 231 233 233 235 230 225
181 221 243 270 319 282 251 265 272 255 229 265 276 282 282 284 274 272 261 246 246 243 241 243 247 247 246 246 246 247 243 241 242 243 244 246 238 235 228 229 231 228 230 232 235 235 235 230 226
235 224 199 215 224 235 256 255 259 284 281 271 277 282 296 304 296 261 247 235 240 237 235 239 246 252 255 256 255 254 250 246 242 244 241 241 237 234 231 230 229 231 230 232 232 232 233 230 224
190 221 223 245 228 245 252 258 272 276 336 353 355 317 314 308 312 280 236 243 234 227 228 240 247 255 262 266 265 258 252 249 244 241 241 241 238 238 231 232 232 232 232 232 231 231 231 226 221
240 226 218 221 222 241 269 268 253 279 304 309 287 305 301 302 321 308 254 231 225 223 221 244 255 267 272 265 263 265 258 253 247 243 241 240 238 236 231 233 234 234 234 231 230 230 226 222 220